N2XGL-1 Weather Reports


time (UTC)temp
C
wind
direction
speed
KPH
gust
KPH
rain 1hr
cm
rain 24hr
cm
rain mn
cm
humidity
%
barometer
mb
20260906222021 30 90 3.2 8.0 0.00 0.00 0.00 40 1000.7
20260906221221 30 0 0.0 1.6 0.00 0.00 0.00 39 1000.8
20260906215506 30 0 4.8 11.3 0.00 0.00 0.00 41 1001.1
20260906214516 30 90 3.2 6.4 0.00 0.00 0.00 40 1001.2
20260906213622 30 292 1.6 6.4 0.00 0.00 0.00 42 1001.4
20260906213531 30 292 1.6 6.4 0.00 0.00 0.00 42 1001.4
20260906212830 31 180 4.8 14.5 0.00 0.00 0.00 39 1001.4
20260906212706 31 180 4.8 14.5 0.00 0.00 0.00 39 1001.4
20260906210951 30 158 4.8 8.0 0.00 0.00 0.00 44 1001.8
20260906210517 29 158 4.8 9.7 0.00 0.00 0.00 44 1001.8
20260906210051 29 158 4.8 9.7 0.00 0.00 0.00 44 1001.8
20260906205141 29 112 3.2 8.0 0.00 0.00 0.00 41 1001.8
20260906204526 30 68 3.2 8.0 0.00 0.00 0.00 43 1002.0
20260906204321 30 68 3.2 8.0 0.00 0.00 0.00 43 1002.0
20260906203436 30 202 1.6 8.0 0.00 0.00 0.00 43 1001.9
20260906203341 30 202 1.6 8.0 0.00 0.00 0.00 43 1001.9
20260906202430 31 158 4.8 11.3 0.00 0.00 0.00 40 1002.0
20260906201531 31 112 4.8 11.3 0.00 0.00 0.00 42 1002.0
20260906200936 31 158 3.2 8.0 0.00 0.00 0.00 43 1002.0
20260906200646 31 158 3.2 8.0 0.00 0.00 0.00 43 1002.0
20260906195941 30 45 4.8 11.3 0.00 0.00 0.00 44 1002.1
20260906195831 30 45 4.8 11.3 0.00 0.00 0.00 44 1002.1
20260906194951 30 202 3.2 8.0 0.00 0.00 0.00 44 1002.2
20260906194309 30 248 3.2 6.4 0.00 0.00 0.00 44 1002.3
20260906194121 30 248 3.2 6.4 0.00 0.00 0.00 44 1002.3
20260906193236 30 202 3.2 8.0 0.00 0.00 0.00 44 1002.5
20260906192532 30 248 4.8 8.0 0.00 0.00 0.00 48 1002.6
20260906192430 30 248 4.8 8.0 0.00 0.00 0.00 48 1002.6
20260906191506 28 0 4.8 17.7 0.00 0.00 0.00 46 1002.7
20260906190530 29 338 4.8 8.0 0.00 0.00 0.00 49 1002.7
20260906185919 28 292 3.2 8.0 0.00 0.00 0.00 50 1002.9
20260906185720 28 292 3.2 8.0 0.00 0.00 0.00 50 1002.9
20260906184736 28 292 6.4 11.3 0.00 0.00 0.00 52 1003.3
20260906183936 28 112 1.6 6.4 0.00 0.00 0.00 50 1003.5
20260906183820 28 112 1.6 6.4 0.00 0.00 0.00 50 1003.5
20260906182830 28 202 4.8 8.0 0.00 0.00 0.00 52 1003.7
20260906182021 27 180 3.2 8.0 0.00 0.00 0.00 53 1003.8
20260906181106 27 202 3.2 8.0 0.00 0.00 0.00 55 1004.0
20260906180206 27 45 3.2 6.4 0.00 0.00 0.00 55 1004.0
20260906175433 27 45 1.6 4.8 0.00 0.00 0.00 54 1004.3
20260906175205 27 45 1.6 4.8 0.00 0.00 0.00 54 1004.3
20260906174310 27 135 3.2 6.4 0.00 0.00 0.00 58 1004.7
20260906173528 26 135 3.2 8.0 0.00 0.00 0.00 60 1004.9
20260906173451 26 135 3.2 8.0 0.00 0.00 0.00 60 1004.9
20260906172536 26 68 4.8 9.7 0.00 0.00 0.00 58 1004.9
20260906171626 25 135 3.2 8.0 0.00 0.00 0.00 61 1005.0
20260906170745 24 135 3.2 6.4 0.00 0.00 0.00 64 1005.0
20260906164248 23 158 3.2 8.0 0.00 0.00 0.00 67 1005.3
20260906164036 23 158 3.2 8.0 0.00 0.00 0.00 67 1005.3
20260906163528 22 225 1.6 4.8 0.00 0.00 0.00 69 1005.4
20260906163220 22 225 1.6 4.8 0.00 0.00 0.00 69 1005.4
20260906162246 22 68 1.6 4.8 0.00 0.00 0.00 68 1005.2
20260906161529 22 45 3.2 8.0 0.00 0.00 0.00 70 1005.2
20260906161416 22 45 3.2 8.0 0.00 0.00 0.00 70 1005.2
20260906160526 22 0 3.2 6.4 0.00 0.00 0.00 70 1005.2
20260906155706 22 68 3.2 9.7 0.00 0.00 0.00 69 1005.3
20260906153140 21 45 3.2 9.7 0.00 0.00 0.00 72 1005.5
20260906153015 21 45 3.2 9.7 0.00 0.00 0.00 72 1005.5
20260906152140 21 45 4.8 9.7 0.00 0.00 0.00 73 1005.5
20260906152040 21 45 4.8 9.7 0.00 0.00 0.00 73 1005.5
20260906151111 20 68 3.2 8.0 0.00 0.00 0.00 76 1005.7
20260906150240 19 0 3.2 8.0 0.00 0.00 0.00 79 1005.6
20260906145519 19 45 1.6 8.0 0.00 0.00 0.00 80 1005.7
20260906145307 19 45 1.6 8.0 0.00 0.00 0.00 80 1005.7
20260906144346 19 22 4.8 9.7 0.00 0.00 0.00 81 1005.8
20260906143530 18 22 3.2 9.7 0.00 0.00 0.00 82 1005.7
20260906143455 18 22 3.2 9.7 0.00 0.00 0.00 82 1005.7
20260906142512 18 0 3.2 11.3 0.00 0.00 0.00 86 1005.7
20260906141706 17 0 4.8 9.7 0.00 0.00 0.00 86 1005.7
20260906140928 17 0 3.2 8.0 0.00 0.00 0.00 87 1005.8
20260906140752 17 0 3.2 8.0 0.00 0.00 0.00 87 1005.8
20260906135951 17 0 3.2 6.4 0.00 0.00 0.00 87 1005.8
20260906135825 17 0 3.2 6.4 0.00 0.00 0.00 87 1005.8
20260906134954 16 0 1.6 4.8 0.00 0.00 0.00 85 1005.9
20260906134841 16 0 1.6 4.8 0.00 0.00 0.00 85 1005.9
20260906134125 16 0 0.0 1.6 0.00 0.00 0.00 84 1005.9
20260906134011 16 0 0.0 1.6 0.00 0.00 0.00 84 1005.9
20260906133346 16 0 0.0 3.2 0.00 0.00 0.00 84 1006.0
20260906133050 16 0 0.0 3.2 0.00 0.00 0.00 84 1006.0
20260906132058 16 338 1.6 4.8 0.00 0.00 0.00 84 1005.9
20260906131156 16 338 1.6 4.8 0.00 0.00 0.00 83 1005.8
20260906130526 16 248 1.6 3.2 0.00 0.00 0.00 82 1005.9
20260906130216 16 248 1.6 3.2 0.00 0.00 0.00 82 1005.9
20260906125455 16 338 1.6 3.2 0.00 0.00 0.00 82 1005.7
20260906125235 16 338 1.6 3.2 0.00 0.00 0.00 82 1005.7
20260906124527 16 0 1.6 4.8 0.00 0.00 0.00 82 1005.7
20260906124236 16 0 1.6 4.8 0.00 0.00 0.00 82 1005.7
20260906123355 17 0 3.2 6.4 0.00 0.00 0.00 81 1005.7
20260906122451 17 0 3.2 6.4 0.00 0.00 0.00 81 1005.6
20260906121641 17 0 3.2 6.4 0.00 0.00 0.00 80 1005.6
20260906120725 17 22 1.6 4.8 0.00 0.00 0.00 80 1005.6
20260906120139 17 22 1.6 6.4 0.00 0.00 0.00 79 1005.6
20260906115801 17 22 1.6 6.4 0.00 0.00 0.00 79 1005.6
20260906112945 16 0 4.8 8.0 0.00 0.00 0.00 77 1005.6
20260906112131 16 338 1.6 6.4 0.00 0.00 0.00 77 1005.6
20260906111231 17 22 1.6 3.2 0.00 0.00 0.00 75 1005.5
20260906110527 17 0 0.0 1.6 0.00 0.00 0.00 74 1005.6
20260906110401 17 0 0.0 1.6 0.00 0.00 0.00 74 1005.6
20260906105526 17 338 1.6 3.2 0.00 0.00 0.00 74 1005.6
20260906104555 17 22 1.6 3.2 0.00 0.00 0.00 73 1005.7
20260906103704 17 292 1.6 3.2 0.00 0.00 0.00 72 1005.7
20260906103606 17 292 1.6 3.2 0.00 0.00 0.00 72 1005.7
20260906102910 17 0 0.0 3.2 0.00 0.00 0.00 71 1005.6
20260906102625 17 0 0.0 3.2 0.00 0.00 0.00 71 1005.6
20260906101821 17 338 1.6 3.2 0.00 0.00 0.00 70 1005.6
20260906100926 17 0 1.6 3.2 0.00 0.00 0.00 69 1005.5
20260906100054 17 22 1.6 3.2 0.00 0.00 0.00 69 1005.5
20260906095231 18 0 0.0 1.6 0.00 0.00 0.00 68 1005.5
20260906095201 18 0 0.0 1.6 0.00 0.00 0.00 68 1005.5
20260906094345 18 22 1.6 3.2 0.00 0.00 0.00 68 1005.6
20260906092501 18 0 4.8 11.3 0.00 0.00 0.00 67 1005.0
20260906091512 18 0 6.4 14.5 0.00 0.00 0.00 66 1004.6
20260906090703 18 0 4.8 8.0 0.00 0.00 0.00 64 1004.6
20260906090625 18 0 4.8 8.0 0.00 0.00 0.00 64 1004.6
20260906085914 19 0 4.8 9.7 0.00 0.00 0.00 62 1004.7
20260906085746 19 0 4.8 9.7 0.00 0.00 0.00 62 1004.7
20260906084107 19 0 4.8 11.3 0.00 0.00 0.00 61 1004.7
20260906083230 20 0 4.8 14.5 0.00 0.00 0.00 61 1004.7
20260906083147 20 0 4.8 14.5 0.00 0.00 0.00 61 1004.7
20260906082337 20 0 6.4 14.5 0.00 0.00 0.00 61 1004.7
20260906081425 20 0 6.4 14.5 0.00 0.00 0.00 61 1004.8
20260906080729 20 0 6.4 16.1 0.00 0.00 0.00 60 1004.7
20260906080600 20 0 6.4 16.1 0.00 0.00 0.00 60 1004.7
20260906075626 20 0 6.4 14.5 0.00 0.00 0.00 59 1004.8
20260906074946 20 0 3.2 11.3 0.00 0.00 0.00 59 1004.7
20260906074806 20 0 3.2 11.3 0.00 0.00 0.00 59 1004.7
20260906073901 20 0 4.8 11.3 0.00 0.00 0.00 56 1004.7
20260906072449 20 22 3.2 6.4 0.00 0.00 0.00 55 1004.9
20260906072121 20 22 3.2 6.4 0.00 0.00 0.00 55 1004.9
20260906071447 20 0 3.2 6.4 0.00 0.00 0.00 55 1005.0
20260906071301 20 0 3.2 6.4 0.00 0.00 0.00 55 1005.0
20260906070326 20 22 3.2 9.7 0.00 0.00 0.00 55 1004.9
20260906065441 20 45 1.6 4.8 0.00 0.00 0.00 56 1004.6
20260906065351 20 45 1.6 4.8 0.00 0.00 0.00 56 1004.6
20260906064411 20 0 1.6 4.8 0.00 0.00 0.00 54 1004.6
20260906063456 20 338 1.6 8.0 0.00 0.00 0.00 54 1004.7
20260906062556 20 292 1.6 4.8 0.00 0.00 0.00 53 1004.7
20260906061736 20 315 1.6 4.8 0.00 0.00 0.00 53 1004.9
20260906060911 20 315 1.6 3.2 0.00 0.00 0.00 56 1004.9
20260906060230 21 292 3.2 6.4 0.00 0.00 0.00 56 1005.4
20260906055930 21 292 3.2 6.4 0.00 0.00 0.00 56 1005.4
20260906055138 21 270 1.6 4.8 0.00 0.00 0.00 54 1005.1
20260906055006 21 270 1.6 4.8 0.00 0.00 0.00 54 1005.1
20260906054016 22 248 1.6 6.4 0.00 0.00 0.00 49 1005.0
20260906053100 22 68 1.6 4.8 0.00 0.00 0.00 49 1004.9
20260906052210 22 68 3.2 8.0 0.00 0.00 0.00 49 1004.9
20260906051220 22 68 3.2 8.0 0.00 0.00 0.00 51 1004.8
20260906050323 22 45 4.8 8.0 0.00 0.00 0.00 50 1004.7
20260906050240 22 45 4.8 8.0 0.00 0.00 0.00 50 1004.7
20260906045349 22 225 1.6 3.2 0.00 0.00 0.00 55 1004.7
20260906045240 22 225 1.6 3.2 0.00 0.00 0.00 55 1004.7
20260906044455 22 0 0.0 3.2 0.00 0.00 0.00 52 1004.8
20260906044326 22 0 0.0 3.2 0.00 0.00 0.00 52 1004.8
20260906043501 22 180 3.2 9.7 0.00 0.00 0.00 50 1004.7
20260906042636 23 90 1.6 3.2 0.00 0.00 0.00 45 1004.5
20260906041641 23 45 1.6 4.8 0.00 0.00 0.00 45 1004.1
20260906040831 23 22 3.2 6.4 0.00 0.00 0.00 45 1003.9
20260906040740 23 22 3.2 6.4 0.00 0.00 0.00 45 1003.9
20260906034920 23 22 4.8 14.5 0.00 0.00 0.00 43 1003.6
20260906034035 24 0 6.4 12.9 0.00 0.00 0.00 44 1003.7
20260906033056 24 0 6.4 9.7 0.00 0.00 0.00 43 1003.6
20260906032313 25 0 6.4 9.7 0.00 0.00 0.00 41 1003.6
20260906032225 25 0 6.4 9.7 0.00 0.00 0.00 41 1003.6
20260906030421 25 45 4.8 9.7 0.00 0.00 0.00 40 1003.1
20260906025611 25 0 4.8 9.7 0.00 0.00 0.00 39 1003.0
20260906024757 25 0 4.8 8.0 0.00 0.00 0.00 38 1002.8
20260906023841 25 22 1.6 4.8 0.00 0.00 0.00 42 1002.9
20260906023801 25 22 1.6 4.8 0.00 0.00 0.00 42 1002.9
20260906022845 25 0 1.6 3.2 0.00 0.00 0.00 38 1002.8
20260906022805 25 0 1.6 3.2 0.00 0.00 0.00 38 1002.8
20260906021913 25 22 3.2 9.7 0.00 0.00 0.00 39 1002.8
20260906021836 25 22 3.2 9.7 0.00 0.00 0.00 39 1002.8
20260906020916 25 292 6.4 16.1 0.00 0.00 0.00 40 1002.5
20260906020051 25 292 6.4 16.1 0.00 0.00 0.00 41 1002.4
20260906015126 25 338 3.2 8.0 0.00 0.00 0.00 38 1002.4
20260906014405 26 292 3.2 8.0 0.00 0.00 0.00 38 1002.1
20260906014216 26 292 3.2 8.0 0.00 0.00 0.00 38 1002.1
20260906013316 26 292 4.8 9.7 0.00 0.00 0.00 37 1002.1
20260906012511 27 292 6.4 11.3 0.00 0.00 0.00 39 1002.1
20260906010716 28 270 9.7 16.1 0.00 0.00 0.00 34 1002.1
20260906005816 28 315 8.0 17.7 0.00 0.00 0.00 33 1002.2
20260906004919 28 270 11.3 19.3 0.00 0.00 0.00 32 1002.3
20260906004056 28 292 9.7 20.9 0.00 0.00 0.00 31 1002.4
20260906003531 28 292 8.0 22.5 0.00 0.00 0.00 32 1002.3
20260906003216 28 292 8.0 22.5 0.00 0.00 0.00 32 1002.3
20260906002335 28 292 8.0 17.7 0.00 0.00 0.00 32 1002.1
20260906001510 28 270 9.7 16.1 0.00 0.00 0.00 36 1002.1
20260906000706 28 270 6.4 14.5 0.00 0.00 0.00 39 1002.2
20260905235826 29 270 8.0 16.1 0.00 0.00 0.00 34 1002.2
20260905234840 30 270 6.4 9.7 0.00 0.00 0.00 32 1002.1
20260905234006 30 315 8.0 19.3 0.00 0.00 0.00 31 1002.0
20260905233011 30 0 0.0 3.2 0.00 0.00 0.00 32 1002.0
20260905232011 31 22 1.6 3.2 0.00 0.00 0.00 32 1001.9
20260905231021 31 270 1.6 4.8 0.00 0.00 0.00 28 1001.8
20260905230147 31 248 1.6 6.4 0.00 0.00 0.00 26 1001.7
20260905225245 31 315 1.6 4.8 0.00 0.00 0.00 26 1001.7
20260905224435 31 0 3.2 9.7 0.00 0.00 0.00 28 1001.7
20260905223510 31 0 3.2 9.7 0.00 0.00 0.00 27 1001.7
20260905222551 31 0 3.2 8.0 0.00 0.00 0.00 27 1001.7